Погода в Можайском

Россия / Воронежская область     51°19′06″N   39°39′37″E
темп.,
°C
ветер,
м/с
пор.,
м/с
влажн.,
%
обл.,
%
осадки,
мм/ч
давл.,
гПа
погр.,
м
16 апреля, пт
пт1600:00+11ююз226867 0.0 101526
03:00+9ю337994 0.0 101543
06:00+9ююз348678 0.0 101682
09:00+13ююз35591 0.0 1017661
12:00+16ю574028 0.0 10171833
15:00+17ю573594 0.0 10172537
18:00+15ююз474594 0.0 1017563
21:00+11ю35605 0.0 1018118
17 апреля, сб
сб1700:00+9ю22686 0.0 101811
03:00+9вюв477098 0.1 1018163
06:00+8юз4690100 3.1 1018403
09:00+9зюз238099 7.5 1018576
12:00+12юз3460100 0.6 10181311
15:00+14юз5537100 1.0 10182209
18:00+13юз46476 0.0 1018446
21:00+8зюз376970 0.0 1020146
18 апреля, вс
вс1800:00+7юз237537 0.0 102146
03:00+7ююз2373100 0.0 102194
06:00+7ююз2476100 0.1 1021135
09:00+9юз346598 0.1 1021706
12:00+12зюз575174 0.0 10201707
15:00+13з345075 0.1 10201416
18:00+13зюз1152100 0.1 10201002
21:00+11вюв3362100 0.2 102173
19 апреля, пн
пн1900:00+9вюв3668100 0.0 1020112
03:00+8в3774100 0.0 1020144
06:00+8в3876100 0.0 1020209
09:00+11в575898 0.0 1020525
12:00+15в5643100 0.0 10181930
15:00+14юв7851100 0.0 10181578
18:00+10в61283100 1.5 1017649
21:00+11в71485100 2.8 1015805
20 апреля, вт
вт2000:00+10в91884100 1.6 1013828
03:00+9вюв101990100 5.2 1011828
06:00+9вюв112092100 8.8 1008888
09:00+10вюв132391100 16.7 10051085
12:00+12юв132487100 1.2 10031407
15:00+12юв122090100 2.6 10031083
18:00+13ююв101587100 0.3 1002923
21:00+11ююв91783100 0.4 1004760